Regional Weather Roundup
Issued by NWS

Home | Current Version | Previous Version | Text Only | Print | Product List | Glossary Off
Versions: 1 2 3 4 5 6 7 8 9 10 11 12 13 14 15 16 17 18 19 20 21 22 23 24 25 26 27 28 29 30 31 32 33 34 35 36 37 38 39 40 41 42 43 44 45 46 47 48 49 50

000
ASUS43 KBIS 170820
RWRND

NORTH DAKOTA REGIONAL WEATHER ROUNDUP
NATIONAL WEATHER SERVICE BISMARCK ND
300 AM CDT WED SEP 17 2014

NOTE: "FAIR" INDICATES FEW OR NO CLOUDS BELOW 12,000 FEET WITH NO
SIGNIFICANT WEATHER AND/OR OBSTRUCTIONS TO VISIBILITY.


NDZ001>003-009>011-017-170900-
NORTHWEST NORTH DAKOTA

CITY           SKY/WX    TMP DP  RH WIND       PRES   REMARKS
WILLISTON      CLEAR     42  37  82 CALM      29.93S
MINOT          CLEAR     48  42  80 SW8       29.91S
MINOT AFB      CLEAR     43  42  96 W7        29.91S
$$

NDZ018>021-031>035-040>046-170900-
SOUTHWEST NORTH DAKOTA

CITY           SKY/WX    TMP DP  RH WIND       PRES   REMARKS
BISMARCK       CLEAR     43  42  97 CALM      29.94S
DICKINSON      PTCLDY    44  39  82 CALM      29.93S
GARRISON         N/A     46  44  93 CALM      29.93S
HETTINGER ARPT PTCLDY    43  41  93 CALM      29.95S
$$

NDZ004>008-012>016-024-026-027-054-170900-
NORTHEAST NORTH DAKOTA

CITY           SKY/WX    TMP DP  RH WIND       PRES   REMARKS
GRAND FORKS    CLEAR     46  41  82 CALM      29.90S
GRND FRKS AFB  CLEAR     47  44  87 SW6       29.90S
DEVILS LAKE    CLEAR     48  39  71 SW3       29.90S
$$

NDZ022-023-025-028>030-036>039-047>053-170900-
SOUTHEAST NORTH DAKOTA

CITY           SKY/WX    TMP DP  RH WIND       PRES   REMARKS
FARGO          CLEAR     54  47  77 S6        29.90S
JAMESTOWN      CLEAR     43  41  93 CALM      29.91S
$$




USA.gov is the U.S. government's official web portal to all federal, state and local government web resources and services.